Theta_e
314 314 314 314 314 315 315 317 318 318 317 319 319 321 325 327 328 329 329 328 329 329 331 333 334 335 337 338 338 338 333 333 336 336 337 337 336 339 338 337 334 336 342 342 339
313 313 313 313 314 314 315 315 317 318 318 319 319 321 324 327 328 330 330 329 329 332 330 333 333 336 337 338 338 336 332 333 335 338 335 337 338 340 340 336 336 335 342 340 338
312 312 313 312 313 314 314 315 316 318 318 319 319 320 324 327 328 331 330 329 331 330 331 330 335 336 337 338 337 336 331 332 335 337 338 337 340 340 341 339 337 336 337 336 336
312 312 312 312 313 313 314 315 316 318 318 319 320 320 323 324 330 332 330 333 330 331 331 330 334 336 338 337 338 336 337 336 334 336 337 338 339 340 341 340 339 337 336 336 336
311 312 312 312 313 313 314 315 316 318 318 319 320 320 321 326 330 331 332 332 329 333 332 332 332 337 339 337 338 335 337 336 337 337 338 340 338 340 341 341 339 337 337 336 337
311 312 312 312 313 313 314 315 317 318 317 319 320 319 321 326 333 332 332 332 330 330 330 330 330 332 337 338 337 337 337 337 338 338 338 338 339 338 343 342 340 339 337 337 337
311 312 312 312 313 313 314 317 318 318 317 319 319 319 321 330 332 332 333 333 330 330 328 329 330 331 333 337 338 338 338 337 338 339 338 336 337 339 342 343 342 341 339 337 336
311 312 312 312 313 314 316 318 318 319 318 319 318 318 326 330 331 333 332 333 332 330 329 330 330 330 332 336 337 337 339 341 338 338 339 339 339 338 340 341 343 342 341 339 336
311 312 312 312 313 315 317 318 321 321 319 319 318 319 328 330 330 330 332 333 332 331 331 331 331 331 332 333 334 336 338 341 340 336 341 342 343 339 342 341 343 343 342 341 339
311 312 312 312 314 318 321 323 324 321 321 318 324 327 329 330 331 330 331 332 332 331 331 331 331 328 331 331 335 336 336 335 337 336 340 342 344 340 343 341 341 341 342 342 342
312 312 312 313 314 318 322 322 322 325 321 325 325 327 331 330 330 330 330 331 331 331 329 331 329 331 329 331 334 334 336 337 338 338 339 340 340 338 340 341 340 340 339 340 340
313 312 312 313 316 320 322 320 320 320 321 323 325 325 326 329 330 330 330 331 331 330 331 330 330 332 332 330 335 334 335 335 340 339 340 342 341 338 337 335 337 341 340 338 336
313 313 312 313 317 320 321 320 319 321 322 324 325 325 327 327 329 329 329 331 330 329 330 331 332 334 332 330 335 335 335 334 339 337 338 340 344 340 336 336 337 338 339 337 336
313 313 312 313 316 316 321 319 318 321 323 329 327 326 326 328 329 329 329 330 330 329 329 330 330 331 332 333 330 330 333 336 339 338 341 338 345 342 338 340 339 339 338 337 338
311 313 313 312 313 315 320 319 319 323 336 329 325 325 326 328 329 329 330 330 329 329 330 330 329 329 329 332 331 332 334 336 339 340 338 341 341 341 341 341 341 339 339 338 338
311 311 314 313 314 319 318 318 321 326 336 326 324 324 324 327 328 328 330 330 329 329 329 329 330 329 328 330 331 334 336 338 336 339 344 339 341 342 341 342 340 339 338 337 339
311 312 314 313 314 314 318 321 326 333 334 325 323 323 323 327 327 328 330 330 328 330 331 330 331 329 330 329 329 331 334 336 336 341 344 337 337 334 338 340 336 333 339 337 338
312 313 315 315 319 319 320 325 334 337 331 329 326 324 323 325 327 329 330 329 329 330 329 329 330 330 331 331 329 332 335 334 340 338 338 339 344 337 336 334 333 333 339 338 337
312 314 316 320 321 320 322 332 334 334 331 330 327 324 324 324 327 327 329 329 329 328 330 331 332 330 332 331 331 331 334 333 338 337 339 342 342 337 336 337 338 338 339 338 336
311 317 321 322 322 318 325 329 333 332 330 329 330 329 326 325 326 327 329 331 331 330 330 330 329 331 335 334 334 336 334 332 336 340 342 343 343 340 338 339 339 338 336 336 335
311 321 322 323 321 323 325 328 329 330 328 331 333 335 330 329 326 327 330 331 331 330 329 331 332 333 335 335 335 333 334 338 335 340 342 341 340 336 341 337 334 338 336 335 335
310 322 325 323 323 324 324 327 327 329 329 329 330 335 337 337 330 330 330 331 330 331 332 332 333 334 337 334 333 335 337 337 342 340 341 340 340 338 338 334 336 338 338 335 335
312 321 322 324 324 323 326 329 330 329 331 333 335 334 334 336 331 330 336 333 330 331 336 340 334 336 339 333 335 336 334 333 334 335 338 336 341 338 336 333 334 336 336 336 335
315 324 321 323 323 324 325 328 333 329 329 331 333 334 335 335 333 336 334 333 334 335 333 339 341 344 338 335 335 338 339 335 330 333 334 339 339 340 337 337 337 338 337 337 336
315 322 325 329 328 331 327 328 330 333 330 330 333 335 338 337 341 341 341 336 335 332 333 343 345 338 337 336 336 336 336 333 333 334 338 338 338 337 335 335 337 337 338 337 335
316 321 321 322 326 331 330 330 331 332 333 331 333 335 338 342 338 339 340 338 337 335 332 337 338 342 340 338 335 339 334 332 333 335 335 336 339 336 339 339 340 340 339 339 339
320 320 322 323 325 327 328 330 330 330 331 332 334 334 338 339 335 335 336 336 334 334 333 338 340 338 338 338 338 340 335 335 333 335 339 343 342 339 337 337 339 339 339 338 338
Wind_Speed
23 24 22 20 20 19 18 18 17 17 15 12 9 6 7 8 9 12 11 6 8 13 12 12 18 24 19 23 26 21 4 1 4 7 5 11 10 8 10 18 12 15 18 27 17
21 22 23 22 20 20 19 17 16 16 15 11 8 6 7 9 12 16 12 10 8 8 10 10 17 17 12 4 11 5 5 3 7 8 3 7 18 12 8 20 14 21 21 18 14
20 21 22 23 21 19 19 17 15 15 15 11 8 7 7 9 13 12 4 6 5 6 5 2 8 12 13 10 8 6 4 5 10 5 1 9 10 4 11 5 20 26 21 16 15
23 20 20 22 21 19 18 16 14 14 14 11 8 7 7 7 3 5 3 1 6 6 5 3 10 2 6 6 12 9 15 14 7 8 6 11 2 9 19 17 16 21 21 18 16
23 22 20 22 21 19 17 16 13 13 13 11 8 6 6 6 12 10 1 4 6 5 13 17 17 6 4 15 10 9 7 17 24 8 8 10 18 9 16 20 19 18 17 15 14
22 23 22 21 21 19 17 14 12 12 12 10 8 6 5 7 4 5 1 5 4 10 18 23 22 13 14 11 5 9 19 24 19 15 2 7 12 10 4 12 18 15 14 13 14
22 23 22 21 21 19 16 12 13 12 12 8 7 6 6 11 4 9 5 8 7 12 16 18 18 20 19 4 15 26 10 14 16 17 5 12 8 4 6 8 16 14 11 13 16
22 22 22 21 21 19 13 13 13 12 9 6 5 4 9 5 7 7 6 10 13 15 15 17 17 18 14 5 12 8 6 3 11 14 17 7 10 17 9 11 16 15 14 13 18
21 22 22 21 19 16 13 13 12 9 4 5 2 1 9 5 13 10 9 12 15 15 19 21 20 18 23 6 4 3 3 8 8 13 7 4 3 12 25 38 13 18 17 20 19
22 21 21 19 17 14 12 14 8 4 2 5 5 3 12 9 12 7 9 9 12 18 22 12 26 5 9 3 4 6 5 5 5 8 17 14 7 13 10 8 14 12 10 20 20
22 22 21 18 13 12 18 18 16 5 19 11 6 15 8 12 7 6 6 7 12 15 7 20 6 6 9 5 5 6 3 6 8 19 19 22 9 5 3 26 18 14 49 5 4
21 22 21 16 7 10 14 14 12 13 12 13 18 21 22 18 10 9 8 9 10 8 14 10 6 4 3 8 5 7 6 5 15 12 13 15 14 6 13 10 14 16 16 6 17
21 21 21 14 4 8 9 10 14 16 5 13 16 15 9 4 5 9 10 10 10 10 12 7 13 18 9 8 4 2 9 6 6 7 7 3 5 5 4 5 12 19 16 6 12
20 21 20 16 7 11 11 13 16 13 2 6 12 11 15 9 6 17 15 14 6 8 9 6 14 19 17 9 8 6 8 9 9 5 1 5 2 2 4 7 12 20 23 17 14
20 20 17 17 15 11 10 19 16 8 3 9 12 8 16 19 3 7 13 12 7 9 6 10 11 16 17 10 6 1 8 6 4 5 6 1 3 3 7 7 20 35 22 18 14
19 19 18 15 14 8 17 19 10 2 5 5 8 10 11 20 18 13 5 4 8 7 10 10 25 9 11 14 6 2 6 6 6 4 1 8 6 2 7 8 17 15 11 18 16
18 17 18 13 11 13 12 16 3 3 4 9 6 7 10 8 7 8 6 2 3 2 4 11 8 14 21 8 9 4 6 4 5 3 5 10 7 3 10 12 18 4 3 7 16
19 18 14 7 9 7 12 3 3 10 4 3 10 11 8 7 9 9 5 2 7 6 2 5 11 9 17 18 10 1 8 5 4 4 3 13 3 2 5 9 4 15 7 5 11
19 15 14 1 4 8 6 2 4 8 11 12 3 8 8 10 7 10 9 7 7 8 8 4 6 12 16 5 10 9 5 6 4 2 4 1 6 1 10 7 19 22 13 11 14
20 18 6 9 5 3 1 5 5 12 8 8 8 5 9 10 9 7 8 10 11 9 10 8 3 5 6 13 16 7 1 6 4 3 3 3 2 3 9 7 0 4 14 12 13
15 10 4 5 4 2 2 6 11 17 5 5 8 8 8 7 13 8 8 6 9 6 4 2 4 6 6 2 4 5 4 8 2 1 4 4 3 3 2 4 7 17 7 11 16
8 4 6 8 1 5 4 5 8 13 16 6 8 7 6 9 8 8 9 8 7 6 2 4 3 2 2 7 4 7 8 7 4 5 5 4 4 4 8 15 29 18 11 7 7
8 8 7 4 2 3 10 12 24 5 10 5 6 7 6 5 6 6 6 5 7 3 4 4 2 3 10 8 4 3 5 3 3 3 3 4 4 13 16 16 25 28 16 5 13
5 3 10 14 12 7 5 11 11 11 11 13 10 15 4 6 3 4 5 5 6 6 8 5 2 2 4 10 4 4 4 8 7 3 1 4 4 6 13 10 7 11 9 2 15
3 6 7 3 5 11 9 9 13 8 11 11 6 7 3 2 7 8 11 6 12 9 4 3 1 5 9 9 7 8 9 13 12 5 7 6 8 3 6 7 18 24 14 7 6
5 8 10 12 14 12 7 4 9 15 8 7 5 7 5 6 9 7 3 4 4 7 4 9 2 4 6 7 7 6 13 13 19 15 6 8 8 6 22 23 22 21 20 18 19
9 6 6 8 7 5 5 7 12 15 20 13 14 6 10 3 15 11 15 10 5 4 3 1 3 2 4 4 4 3 1 2 6 4 5 8 3 14 13 21 17 19 17 18 20
Wind_Direction
346 345 345 346 345 345 345 344 349 352 345 337 321 302 287 289 282 284 285 318 318 325 357 355 336 318 327 298 304 282 44 82 47 111 166 147 117 107 142 145 108 101 118 138 137
345 341 338 341 341 340 340 339 342 345 345 336 323 296 283 289 291 277 275 274 305 340 348 338 340 354 335 292 282 238 133 75 80 97 126 129 144 146 157 133 128 110 128 135 144
345 342 336 338 338 340 336 336 336 340 342 338 325 296 291 299 307 294 287 247 313 333 313 296 0 318 330 328 294 342 126 140 85 41 247 116 121 130 97 106 157 143 147 146 159
343 345 337 333 336 339 334 333 332 334 338 338 321 295 284 297 320 338 168 324 323 325 273 271 252 238 322 305 322 26 8 34 124 105 306 107 312 131 129 126 117 141 151 150 170
341 341 339 333 337 338 334 328 327 327 331 331 316 296 298 281 269 277 154 323 330 313 320 300 270 190 268 266 265 55 312 8 334 321 286 69 38 357 127 130 123 133 148 159 187
341 339 339 336 334 335 332 323 323 320 320 315 314 297 297 273 266 282 249 313 331 333 332 319 339 334 202 79 89 209 31 353 325 325 103 97 82 149 6 110 129 139 158 177 184
341 337 338 336 334 335 331 321 317 314 308 298 304 286 255 238 310 311 304 308 335 316 306 313 322 322 311 115 68 52 19 352 329 25 266 96 8 253 290 319 143 150 160 187 185
342 338 336 336 337 334 331 318 315 314 294 281 287 267 255 274 246 266 292 293 296 281 289 301 300 304 298 268 99 94 68 83 285 262 278 74 307 300 264 308 156 156 180 191 207
341 339 336 337 339 336 334 326 322 318 268 291 242 291 275 281 247 253 249 267 298 321 311 306 282 263 285 290 32 232 191 202 270 288 139 116 201 249 306 319 199 177 191 204 204
342 341 337 339 343 344 2 358 355 340 315 306 184 296 253 245 265 221 229 264 289 307 312 304 305 283 230 139 175 233 229 223 227 328 60 90 132 113 173 208 75 346 284 212 212
342 340 339 342 349 353 20 22 21 48 327 265 300 256 257 257 257 186 231 260 277 288 292 301 331 311 11 212 186 29 269 233 63 106 86 57 1 39 256 57 5 322 6 279 216
339 342 341 343 7 16 5 24 9 325 303 285 268 269 263 285 220 229 235 237 275 271 284 312 273 326 344 295 83 334 334 19 108 110 93 114 239 61 9 116 206 253 241 305 89
338 342 343 344 355 355 349 0 352 341 283 291 241 244 246 225 278 263 228 229 256 282 291 314 306 316 319 311 65 241 27 43 105 102 89 104 10 15 338 264 263 285 295 120 89
336 339 346 348 331 335 30 351 342 340 330 249 194 227 220 222 267 273 272 222 248 275 307 303 330 329 330 339 63 3 11 34 55 71 51 111 79 221 16 317 317 283 304 117 104
334 333 341 334 324 335 334 339 326 333 343 160 173 220 192 201 200 244 264 198 218 275 326 294 325 319 319 296 15 321 59 20 103 44 45 71 187 58 66 347 342 306 284 119 111
330 330 327 326 325 345 349 319 322 25 251 126 150 179 181 205 221 262 2 42 357 330 305 290 303 277 285 318 286 300 67 64 65 100 263 278 163 166 159 152 235 258 12 110 110
325 323 310 310 304 304 326 337 359 233 198 133 171 161 192 191 211 231 175 204 178 271 319 317 294 282 279 302 310 258 69 355 14 24 216 8 58 185 186 193 228 219 325 74 105
322 321 305 306 340 2 343 348 258 281 51 42 154 161 191 198 207 240 129 245 281 248 251 259 312 318 319 298 215 314 118 128 278 328 328 34 303 33 168 208 212 201 245 176 126
323 319 307 268 19 2 331 290 251 331 357 358 291 152 199 204 174 203 196 216 232 212 183 252 277 323 330 12 55 321 64 169 136 106 74 18 299 28 162 215 242 212 211 195 131
328 331 320 103 197 294 349 258 275 303 346 333 327 266 184 192 185 197 211 222 232 245 196 236 322 301 7 13 7 65 342 20 39 352 35 233 221 284 330 335 105 276 115 103 127
327 329 151 212 291 164 214 258 303 316 353 344 316 307 282 197 185 204 199 236 203 230 1 19 100 304 39 30 290 356 12 48 83 179 172 174 237 184 20 53 6 281 148 110 102
314 282 189 198 256 221 226 248 282 325 309 253 288 302 349 342 190 179 195 198 133 96 49 336 135 339 209 248 231 119 136 114 130 271 225 108 269 156 193 202 196 244 262 115 131
321 275 260 214 241 259 304 303 293 285 298 319 327 312 348 337 17 352 81 78 89 90 94 354 355 27 336 346 356 139 196 144 166 301 311 88 265 182 201 217 236 262 128 131 132
315 293 237 219 239 274 302 291 304 230 260 302 304 314 318 317 354 321 129 150 106 98 101 85 344 158 177 238 258 313 282 200 176 127 243 169 200 132 196 204 70 115 158 256 176
244 266 6 329 290 311 243 283 304 309 198 270 295 287 303 26 27 7 8 108 69 40 34 95 276 7 325 38 44 23 337 47 34 345 90 186 85 66 65 75 30 17 31 103 23
316 350 330 301 306 303 297 284 300 298 323 227 260 308 61 311 152 252 54 34 241 341 51 330 251 8 323 7 34 57 35 25 61 324 39 73 59 68 48 50 53 41 32 24 12
334 303 343 286 305 311 276 301 288 291 305 317 357 338 59 189 176 172 120 135 95 222 111 291 336 30 277 26 336 17 246 313 304 352 53 70 69 46 34 24 49 33 17 4 358